Regional Weather Roundup
Issued by NWS

Home | Current Version | Previous Version | Text Only | Print | Product List | Glossary On
Versions: 1 2 3 4 5 6 7 8 9 10 11 12 13 14 15 16 17 18 19 20 21 22 23 24 25 26 27 28 29 30 31 32 33 34 35 36 37 38 39 40 41 42 43 44 45 46 47 48 49 50
000
ASUS45 KPSR 142210
RWRAZ

ARIZONA HOURLY REGIONAL WEATHER ROUNDUP
NATIONAL WEATHER SERVICE PHOENIX AZ
300 PM MST SUN FEB 14 2016

NOTE: FAIR INDICATES FEW OR NO CLOUDS BELOW 12,000 FEET WITH NO
SIGNIFICANT WEATHER AND/OR OBSTRUCTIONS TO VISIBILITY.

AZZ001>003-036-142300-
NORTHWEST ARIZONA

CITY           SKY/WX    TMP DP  RH WIND       PRES   REMARKS
BULLHEAD CITY  CLOUDY    75  16  10 N17       30.04S
KINGMAN        CLOUDY    68  12  11 N17       30.11F
$$

AZZ004>008-015-016-018-142300-
NORTH CENTRAL ARIZONA

CITY           SKY/WX    TMP DP  RH WIND       PRES   REMARKS
GRAND CANYON   MOSUNNY   57   7  13 NW7       30.19R
WILLIAMS       MOSUNNY   57   5  12 N13G22    30.23F
PRESCOTT       SUNNY     68  -1   6 N15       30.10F
FLAGSTAFF      SUNNY     58   4  11 NW9       30.16F
PAYSON         SUNNY     68  12  11 W14G20    30.10S
PAGE           SUNNY     57  27  31 E5        30.08F
$$

AZZ009>014-017-142300-
NORTHEAST ARIZONA

CITY           SKY/WX    TMP DP  RH WIND       PRES   REMARKS
WINSLOW        MOSUNNY   64  16  15 NW7       30.10F
SAINT JOHNS    SUNNY     62  14  15 NW13G20   30.08F
WINDOW ROCK    MOSUNNY   56   0  10 NW18G25   30.11F
SHOW LOW       MOSUNNY   59  10  14 W5        30.14R
$$

AZZ023-142300-
GREATER PHOENIX AREA

CITY           SKY/WX    TMP DP  RH WIND       PRES   REMARKS
PHOENIX        MOSUNNY   80  28  15 VRB3      29.93F
BUCKEYE        SUNNY     77  28  16 SW7       29.97F
GLENDALE       MOSUNNY   73  28  19 CALM      29.95F
LUKE AFB       SUNNY     79  28  15 SW6       29.92F
DEER VALLEY    SUNNY     77  27  15 MISG      29.94F
SCOTTSDALE     SUNNY     77  24  14 W3        29.96F
MESA-FALCON    MOSUNNY  N/A N/A N/A W10       29.95S
MESA-GATEWAY   MOSUNNY   77  32  19 W7        29.97R
CHANDLER       MOSUNNY   77  28  16 SW7       29.95S
$$

AZZ027-028-142300-
SOUTHWEST MARICOPA COUNTY AND PINAL COUNTY

CITY           SKY/WX    TMP DP  RH WIND       PRES   REMARKS
CASA GRANDE    SUNNY     75  30  19 NW9       29.97S
GILA BEND      FAIR      79  25  14 VRB5      29.94F
$$

AZZ503-504-507>509-142300-
SOUTHEAST ARIZONA

CITY           SKY/WX    TMP DP  RH WIND       PRES   REMARKS
TUCSON         SUNNY     81  19  10 NW8       29.98F
DAVIS-MONTHAN  SUNNY     79  17  10 W8        29.96F
RYAN FIELD     SUNNY     81  23  12 W9        29.98F
NOGALES        SUNNY     78   9   7 NW15G21   30.00F
SIERRA VISTA   SUNNY     74   9   8 N8        30.05S
DOUGLAS        SUNNY     77   8   7 NW13      30.00F
SAFFORD        SUNNY     77  17  10 NW13      29.94F
$$

AZZ020-021-025-026-031-142300-
SOUTHWEST ARIZONA

CITY           SKY/WX    TMP DP  RH WIND       PRES   REMARKS
YUMA           SUNNY     87  17   7 N15       29.95F
$$

CAZ031-033-041-043-047-048-061-142300-
SOUTHERN CALIFORNIA

CITY           SKY/WX    TMP DP  RH WIND       PRES   REMARKS
DOWNTOWN L.A.  SUNNY     79  51  37 CALM      29.97F
L.A. AIRPORT   MOSUNNY   64  53  67 SW3       29.99F
SAN DIEGO      MOSUNNY   69  48  47 NW9       29.98F
BURBANK        SUNNY     83  31  15 E12       29.98F
ONTARIO        PTSUNNY   87  15   7 NE13G25   29.98F
RIVERSIDE      PTSUNNY   87  18   8 N12G22    29.98F
PALM SPRINGS   SUNNY     91  14   6 N14       30.00F
EL CENTRO NAS  SUNNY     88  12   6 N10       29.97F
IMPERIAL       SUNNY     88  22   9 NW8       29.94F
BLYTHE         MOSUNNY   86  14   7 N16       29.97F
NEEDLES        PTSUNNY   80  16   9 NE22G29   30.03S
$$

NVZ020-UTZ003-142300-
SOUTHERN NEVADA-UTAH

CITY           SKY/WX    TMP DP  RH WIND       PRES   REMARKS
LAS VEGAS      CLOUDY    70  16  12 S6        30.07F
SALT LAKE CITY CLOUDY    42  35  76 SE5       30.24S HAZE
$$

NMZ009-TXZ055-142300-
NEW MEXICO-WEST TEXAS

CITY           SKY/WX    TMP DP  RH WIND       PRES   REMARKS
ALBUQUERQUE    CLOUDY    63   3   9 NW18G24   30.00S
EL PASO        MOSUNNY   74  10   8 SW8       29.94F
$$


........................KEY........................
SKY/WX - SKY CONDITION/WEATHER
TMP    - TEMPERATURE IN FAHRENHEIT
DP     - DEW POINT IN FAHRENHEIT
RH     - RELATIVE HUMIDITY IN PERCENT
WIND   - DIRECTION AND SPEED IN MILES PER HOUR (MPH)
VRB    - VARIABLE WIND DIRECTION
PRES   - MEAN SEA LEVEL PRESSURE IN INCHES OF MERCURY
         F - FALLING PRESSURE   R - RISING PRESSURE
         S - STEADY PRESSURE
VSB    - VISIBILITY IN MILES
HX     - HEAT INDEX IN FAHRENHEIT
WCI    - WIND CHILL INDEX IN FAHRENHEIT
TC     - TEMPERATURE IN CELSIUS WHICH IS ALSO KNOWN AS
         TEMPERATURE IN CENTIGRADE
AFB    - AIR FORCE BASE
         LUKE AFB IS LUKE AIR FORCE BASE
         DAVIS-MONTHAN IS DAVIS-MONTHAN AIR FORCE BASE
NAS    - NAVAL AIR STATION
         EL CENTRO NAS IS EL CENTRO NAVAL AIR STATION
N/A    - NOT AVAILABLE




USA.gov is the U.S. government's official web portal to all federal, state and local government web resources and services.